Location: Montreal
(45.5000°N, 73.5833°W)
Time: 13:43:06
(UTC-04:00)

Envisat - Pass Details

Date: 15 October 2017
Orbit: 764 x 766 km, 98.2° (Epoch: 21 October)

Event Time Altitude Azimuth Distance (km) Brightness Sun altitude
Exits shadow 19:43:02 29° 82° (E) 1,367 3.7 -17.3°
Maximum altitude 19:43:46 31° 66° (ENE) 1,330 3.8 -17.5°
Drops below altitude 10° 19:48:11 10° 5° (N) 2,312 5.5 -18.2°
Sets 19:50:43 0° 356° (N) 3,243 6.4 -18.7°
